Date String (YYYY-MM-DD hh:mm:ss) UTC,Instrument flags,Ambient pressure (hPa),Sample flow (lpm),Bypass flow (lpm),Sample temperature (°C),Ambient temperature (°C),ASC tube jacket temperature (°C),LED temperature (°C),Box temperature (°C),Sample RH (%),Span deviation,Mass concentration (μg/m³),Mass concentration (μg/m³),Mass concentration (μg/m³)
DateTimeUTC,F1_M11,P_M11,Q1_M11,Q2_M11,T1_M11,T2_M11,T3_M11,T4_M11,T5_M11,U1_M11,ZSPAN_M11,X0_M11,X2_M11,X1_M11
2022-03-26 06:00:00,,0826.2,4.99,0.00,28.6,27.6,00.0,37.7,30.4,12.7,0000.0,0016.91,0005.58,0004.13
2022-03-26 06:01:00,,0826.2,5.01,0.00,28.6,27.6,00.0,37.7,30.4,12.7,0000.0,0016.75,0005.58,0004.12
2022-03-26 06:02:00,,0826.2,5.00,0.00,28.6,27.6,00.0,37.7,30.4,12.7,0000.0,0015.85,0005.54,0004.10
2022-03-26 06:03:00,,0826.1,4.99,0.00,28.6,27.6,00.0,37.7,30.4,12.7,0000.0,0016.17,0005.55,0004.09
2022-03-26 06:04:00,,0826.1,5.00,0.00,28.6,27.6,00.0,37.7,30.4,12.7,0001.3,0016.42,0005.58,0004.08
2022-03-26 06:05:00,,0826.1,4.99,0.00,28.6,27.6,00.0,37.6,30.4,12.7,0001.6,0016.21,0005.55,0004.07
2022-03-26 06:06:00,,0826.1,5.01,0.00,28.6,27.6,00.0,37.6,30.4,12.7,0001.4,0017.34,0005.56,0004.08
2022-03-26 06:07:00,,0826.1,5.00,0.00,28.6,27.6,00.0,37.6,30.4,12.7,0001.7,0016.96,0005.56,0004.09
2022-03-26 06:08:00,,0826.1,4.99,0.00,28.6,27.6,00.0,37.6,30.3,12.7,0002.7,0016.32,0005.54,0004.08
2022-03-26 06:09:00,,0826.1,5.00,0.00,28.6,27.6,00.0,37.6,30.3,12.7,0000.0,0016.40,0005.46,0004.07
2022-03-26 06:10:00,,0826.1,5.01,0.00,28.6,27.6,00.0,37.6,30.3,12.7,0000.0,0017.40,0005.47,0004.05
2022-03-26 06:11:00,,0826.1,5.00,0.00,28.6,27.6,00.0,37.6,30.3,12.7,0000.0,0018.30,0005.53,0004.06
2022-03-26 06:12:00,,0826.1,4.99,0.00,28.6,27.6,00.0,37.6,30.3,12.7,0000.0,0019.13,0005.54,0004.06
2022-03-26 06:13:00,,0826.1,5.01,0.00,28.6,27.5,00.0,37.6,30.3,12.8,0000.0,0019.45,0005.53,0004.04
2022-03-26 06:14:00,,0826.0,4.99,0.00,28.5,27.5,00.0,37.6,30.3,12.8,0000.0,0019.14,0005.50,0004.03
2022-03-26 06:15:00,,0826.0,4.99,0.00,28.5,27.5,00.0,37.6,30.3,12.8,0000.0,0019.58,0005.50,0004.03
2022-03-26 06:16:00,,0826.0,5.01,0.00,28.5,27.5,00.0,37.6,30.3,12.7,0000.0,0019.83,0005.54,0004.02
2022-03-26 06:17:00,,0826.0,4.99,0.00,28.5,27.5,00.0,37.6,30.2,12.7,0000.0,0018.76,0005.57,0004.02
2022-03-26 06:18:00,,0826.1,5.00,0.00,28.5,27.5,00.0,37.6,30.3,12.7,0000.0,0018.46,0005.61,0004.02
2022-03-26 06:19:00,,0826.0,5.00,0.00,28.5,27.5,00.0,37.6,30.3,12.8,0000.0,0018.88,0005.66,0004.01
2022-03-26 06:20:00,,0826.1,5.01,0.00,28.5,27.5,00.0,37.6,30.3,12.8,0000.0,0018.68,0005.68,0004.01
2022-03-26 06:21:00,,0826.0,5.00,0.00,28.5,27.5,00.0,37.6,30.2,12.8,0000.0,0018.42,0005.69,0004.01
2022-03-26 06:22:00,,0826.1,4.99,0.00,28.5,27.5,00.0,37.6,30.2,12.8,0000.0,0017.95,0005.65,0003.99
2022-03-26 06:23:00,,0826.1,5.00,0.00,28.5,27.5,00.0,37.6,30.2,12.8,0000.0,0017.59,0005.61,0003.96
2022-03-26 06:24:00,,0826.1,5.01,0.00,28.5,27.5,00.0,37.5,30.2,12.8,0000.0,0017.80,0005.61,0003.96
2022-03-26 06:25:00,,0826.0,4.99,0.00,28.5,27.4,00.0,37.5,30.2,12.9,0000.0,0017.73,0005.61,0003.94
2022-03-26 06:26:00,,0826.0,4.99,0.00,28.4,27.4,00.0,37.5,30.2,12.9,0000.0,0017.07,0005.60,0003.92
2022-03-26 06:27:00,,0826.0,5.01,0.00,28.4,27.4,00.0,37.5,30.2,12.9,0000.0,0016.51,0005.62,0003.91
2022-03-26 06:28:00,,0825.9,4.99,0.00,28.4,27.4,00.0,37.5,30.1,12.9,0000.0,0016.06,0005.58,0003.88
2022-03-26 06:29:00,,0825.8,4.99,0.00,28.4,27.4,00.0,37.5,30.2,12.9,0000.0,0016.54,0005.56,0003.86
2022-03-26 06:30:00,,0825.9,5.01,0.00,28.4,27.4,00.0,37.5,30.2,12.9,0000.0,0016.05,0005.50,0003.86
2022-03-26 06:31:00,,0826.1,4.99,0.00,28.4,27.4,00.0,37.5,30.1,12.9,0000.0,0015.67,0005.42,0003.84
2022-03-26 06:32:00,,0826.0,4.99,0.00,28.4,27.3,00.0,37.5,30.1,12.9,0000.0,0015.36,0005.40,0003.82
2022-03-26 06:33:00,,0826.0,5.00,0.00,28.4,27.3,00.0,37.5,30.1,12.9,0000.0,0015.40,0005.44,0003.80
2022-03-26 06:34:00,,0826.0,5.02,0.00,28.3,27.3,00.0,37.4,30.0,12.9,0000.0,0015.17,0005.49,0003.79
2022-03-26 06:35:00,,0825.9,4.99,0.00,28.3,27.3,00.0,37.4,30.0,13.0,0000.0,0014.78,0005.48,0003.76
2022-03-26 06:36:00,,0825.9,4.99,0.00,28.3,27.3,00.0,37.4,30.0,13.0,0000.0,0014.86,0005.46,0003.74
2022-03-26 06:37:00,,0825.9,5.02,0.00,28.3,27.3,00.0,37.4,30.0,13.0,0000.0,0014.74,0005.43,0003.71
2022-03-26 06:38:00,,0825.9,4.99,0.00,28.3,27.2,00.0,37.4,30.0,12.9,0000.0,0015.73,0005.37,0003.70
2022-03-26 06:39:00,,0825.9,4.99,0.00,28.3,27.2,00.0,37.4,30.0,12.8,0000.0,0016.30,0005.38,0003.68
2022-03-26 06:40:00,,0825.9,5.01,0.00,28.3,27.2,00.0,37.4,30.0,12.9,0000.0,0015.92,0005.39,0003.65
2022-03-26 06:41:00,,0825.9,4.99,0.00,28.3,27.2,00.0,37.4,30.0,13.0,0000.0,0016.55,0005.39,0003.61
2022-03-26 06:42:00,,0825.9,4.99,0.00,28.2,27.2,00.0,37.4,30.0,13.0,0000.0,0017.30,0005.44,0003.58
2022-03-26 06:43:00,,0825.7,5.01,0.00,28.2,27.2,00.0,37.3,29.9,13.0,0000.0,0018.03,0005.44,0003.56
2022-03-26 06:44:00,,0825.7,5.00,0.00,28.2,27.2,00.0,37.3,29.9,13.1,0000.0,0017.34,0005.38,0003.54
2022-03-26 06:45:00,,0825.7,4.99,0.00,28.2,27.1,00.0,37.3,29.9,13.0,0000.0,0017.19,0005.28,0003.53
2022-03-26 06:46:00,,0825.8,4.99,0.00,28.2,27.1,00.0,37.3,29.9,13.0,0000.0,0017.23,0005.19,0003.51
2022-03-26 06:47:00,,0825.8,5.00,0.00,28.2,27.1,00.0,37.3,29.9,13.1,0000.0,0017.57,0005.18,0003.49
2022-03-26 06:48:00,,0825.7,5.01,0.00,28.2,27.1,00.0,37.3,29.9,13.1,0000.0,0017.86,0005.23,0003.48
2022-03-26 06:49:00,,0825.7,5.00,0.00,28.1,27.1,00.0,37.3,29.8,13.2,0000.0,0016.90,0005.14,0003.46
2022-03-26 06:50:00,,0825.6,4.99,0.00,28.1,27.1,00.0,37.3,29.8,13.2,0000.0,0017.44,0005.12,0003.44
2022-03-26 06:51:00,,0825.6,5.00,0.00,28.1,27.1,00.0,37.2,29.8,13.2,0000.0,0017.35,0005.05,0003.42
2022-03-26 06:52:00,,0825.7,5.02,0.00,28.1,27.1,00.0,37.2,29.8,13.2,0000.0,0017.26,0005.00,0003.41
2022-03-26 06:53:00,,0825.6,4.99,0.00,28.1,27.1,00.0,37.2,29.8,13.2,0000.0,0016.95,0004.99,0003.41
2022-03-26 06:54:00,,0825.6,5.00,0.00,28.1,27.1,00.0,37.2,29.8,13.2,0000.0,0016.02,0004.95,0003.39
2022-03-26 06:55:00,,0825.7,5.00,0.00,28.1,27.0,00.0,37.2,29.8,13.1,0000.0,0015.73,0004.91,0003.38
2022-03-26 06:56:00,,0825.7,5.01,0.00,28.0,27.0,00.0,37.2,29.8,13.1,0000.0,0016.21,0004.94,0003.39
2022-03-26 06:57:00,,0825.7,5.00,0.00,28.0,27.0,00.0,37.2,29.7,13.1,0000.0,0015.83,0005.02,0003.39
2022-03-26 06:58:00,,0825.7,5.00,0.00,28.0,27.0,00.0,37.1,29.7,13.0,0000.0,0015.80,0005.11,0003.40
2022-03-26 06:59:00,,0825.7,5.00,0.00,28.0,27.0,00.0,37.1,29.7,12.9,0000.0,0015.26,0005.11,0003.42
